| time (UTC) | temp F | wind direction | speed knots | gust knots | rain 1hr in | rain 24hr in | rain mn in | humidity % | barometer mb |
| 20260509080033 | 60 | 8 | 2.6 | 4.3 | 0.00 | 0.00 | 0.00 | 41 | 1018.2 |
| 20260509074534 | 61 | 233 | 6.1 | 13.0 | 0.00 | 0.00 | 0.00 | 44 | 1018.1 |
| 20260509073025 | 61 | 41 | 0.9 | 4.3 | 0.00 | 0.00 | 0.00 | 41 | 1017.8 |
| 20260509071524 | 60 | 82 | 6.1 | 10.4 | 0.00 | 0.00 | 0.00 | 44 | 1017.7 |
| 20260509070032 | 62 | 11 | 6.1 | 7.8 | 0.00 | 0.00 | 0.00 | 40 | 1017.1 |
| 20260509064521 | 62 | 311 | 6.1 | 7.8 | 0.00 | 0.00 | 0.00 | 41 | 1017.1 |
| 20260509063020 | 63 | 97 | 2.6 | 6.1 | 0.00 | 0.00 | 0.00 | 39 | 1017.2 |
| 20260509061520 | 65 | 293 | 0.9 | 13.9 | 0.00 | 0.00 | 0.00 | 37 | 1016.8 |
| 20260509060100 | 67 | 335 | 13.0 | 18.2 | 0.00 | 0.00 | 0.00 | 35 | 1016.4 |
| 20260509054600 | 67 | 360 | 9.6 | 18.2 | 0.00 | 0.00 | 0.00 | 35 | 1016.2 |
| 20260509053044 | 68 | 344 | 16.5 | 23.5 | 0.00 | 0.00 | 0.00 | 34 | 1016.0 |
| 20260509051543 | 67 | 323 | 9.6 | 19.1 | 0.00 | 0.00 | 0.00 | 34 | 1015.8 |
| 20260509050040 | 68 | 335 | 12.2 | 20.0 | 0.00 | 0.00 | 0.00 | 33 | 1015.7 |
| 20260509044518 | 68 | 335 | 12.2 | 17.4 | 0.00 | 0.00 | 0.00 | 32 | 1015.6 |
| 20260509043104 | 68 | 338 | 12.2 | 19.1 | 0.00 | 0.00 | 0.00 | 31 | 1015.6 |
| 20260509043002 | 68 | 343 | 13.9 | 19.1 | 0.00 | 0.00 | 0.00 | 31 | 1015.6 |
| 20260509041600 | 68 | 356 | 9.6 | 13.9 | 0.00 | 0.00 | 0.00 | 31 | 1015.5 |
| 20260509040048 | 68 | 349 | 7.8 | 12.2 | 0.00 | 0.00 | 0.00 | 29 | 1015.3 |
| 20260509034545 | 69 | 338 | 8.7 | 16.5 | 0.00 | 0.00 | 0.00 | 28 | 1014.9 |
| 20260509033058 | 69 | 332 | 9.6 | 15.6 | 0.00 | 0.00 | 0.00 | 27 | 1014.7 |
| 20260509031540 | 69 | 324 | 11.3 | 17.4 | 0.00 | 0.00 | 0.00 | 25 | 1014.5 |
| 20260509030039 | 70 | 326 | 9.6 | 17.4 | 0.00 | 0.00 | 0.00 | 23 | 1014.3 |
| 20260509024540 | 71 | 355 | 11.3 | 15.6 | 0.00 | 0.00 | 0.00 | 21 | 1014.0 |
| 20260509023036 | 72 | 347 | 12.2 | 20.0 | 0.00 | 0.00 | 0.00 | 20 | 1013.8 |
| 20260509021534 | 73 | 352 | 12.2 | 18.2 | 0.00 | 0.00 | 0.00 | 18 | 1013.7 |
| 20260509020022 | 74 | 350 | 13.9 | 20.0 | 0.00 | 0.00 | 0.00 | 17 | 1013.5 |
| 20260509014518 | 75 | 341 | 11.3 | 20.9 | 0.00 | 0.00 | 0.00 | 17 | 1013.4 |
| 20260509013001 | 76 | 336 | 14.8 | 20.9 | 0.00 | 0.00 | 0.00 | 17 | 1013.3 |
| 20260509011504 | 77 | 360 | 13.9 | 20.9 | 0.00 | 0.00 | 0.00 | 17 | 1013.2 |
| 20260509010101 | 78 | 343 | 8.7 | 18.2 | 0.00 | 0.00 | 0.00 | 18 | 1013.1 |
| 20260509004603 | 78 | 338 | 12.2 | 19.1 | 0.00 | 0.00 | 0.00 | 18 | 1013.2 |
| 20260509003102 | 79 | 336 | 8.7 | 17.4 | 0.00 | 0.00 | 0.00 | 16 | 1012.9 |
| 20260509001559 | 79 | 32 | 8.7 | 15.6 | 0.00 | 0.00 | 0.00 | 18 | 1012.8 |
| 20260509000058 | 80 | 358 | 7.8 | 13.9 | 0.00 | 0.00 | 0.00 | 17 | 1012.8 |
| 20260508234558 | 80 | 9 | 8.7 | 14.8 | 0.00 | 0.00 | 0.00 | 16 | 1012.7 |
| 20260508233039 | 80 | 309 | 4.3 | 15.6 | 0.00 | 0.00 | 0.00 | 18 | 1012.6 |
| 20260508231545 | 80 | 340 | 4.3 | 13.0 | 0.00 | 0.00 | 0.00 | 19 | 1012.7 |
| 20260508230020 | 79 | 285 | 0.0 | 10.4 | 0.00 | 0.00 | 0.00 | 18 | 1012.7 |
| 20260508224540 | 79 | 340 | 7.8 | 20.0 | 0.00 | 0.00 | 0.00 | 17 | 1012.9 |
| 20260508223100 | 79 | 301 | 8.7 | 17.4 | 0.00 | 0.00 | 0.00 | 17 | 1013.0 |
| 20260508223002 | 79 | 318 | 10.4 | 17.4 | 0.00 | 0.00 | 0.00 | 17 | 1012.9 |
| 20260508221610 | 79 | 205 | 10.4 | 22.6 | 0.00 | 0.00 | 0.00 | 17 | 1012.8 |
| 20260508220041 | 78 | 243 | 8.7 | 18.2 | 0.00 | 0.00 | 0.00 | 20 | 1012.9 |
| 20260508214546 | 79 | 304 | 8.7 | 16.5 | 0.00 | 0.00 | 0.00 | 19 | 1013.1 |
| 20260508213030 | 78 | 254 | 7.8 | 14.8 | 0.00 | 0.00 | 0.00 | 20 | 1013.0 |
| 20260508211524 | 79 | 312 | 7.8 | 19.1 | 0.00 | 0.00 | 0.00 | 18 | 1013.1 |
| 20260508210001 | 78 | 311 | 8.7 | 15.6 | 0.00 | 0.00 | 0.00 | 17 | 1013.1 |
| 20260508204559 | 77 | 278 | 11.3 | 15.6 | 0.00 | 0.00 | 0.00 | 19 | 1013.2 |
| 20260508203039 | 76 | 278 | 6.1 | 14.8 | 0.00 | 0.00 | 0.00 | 18 | 1013.1 |
| 20260508201540 | 76 | 301 | 9.6 | 16.5 | 0.00 | 0.00 | 0.00 | 16 | 1013.3 |
| 20260508200029 | 74 | 261 | 12.2 | 21.7 | 0.00 | 0.00 | 0.00 | 19 | 1013.1 |
| 20260508194515 | 74 | 278 | 13.9 | 24.3 | 0.00 | 0.00 | 0.00 | 20 | 1013.2 |
| 20260508193003 | 74 | 284 | 15.6 | 23.5 | 0.00 | 0.00 | 0.00 | 20 | 1013.0 |
| 20260508191500 | 74 | 249 | 14.8 | 21.7 | 0.00 | 0.00 | 0.00 | 22 | 1013.0 |
| 20260508190100 | 73 | 260 | 13.9 | 19.1 | 0.00 | 0.00 | 0.00 | 23 | 1013.1 |
| 20260508184559 | 74 | 256 | 13.0 | 20.9 | 0.00 | 0.00 | 0.00 | 25 | 1013.3 |
| 20260508183124 | 73 | 210 | 14.8 | 20.9 | 0.00 | 0.00 | 0.00 | 26 | 1013.4 |
| 20260508181610 | 73 | 203 | 14.8 | 20.9 | 0.00 | 0.00 | 0.00 | 26 | 1013.5 |
| 20260508180051 | 72 | 269 | 14.8 | 20.0 | 0.00 | 0.00 | 0.00 | 28 | 1013.5 |
| 20260508174549 | 71 | 248 | 12.2 | 20.0 | 0.00 | 0.00 | 0.00 | 29 | 1013.6 |
| 20260508173028 | 68 | 214 | 13.9 | 18.2 | 0.00 | 0.00 | 0.00 | 35 | 1013.7 |
| 20260508171533 | 66 | 191 | 11.3 | 16.5 | 0.00 | 0.00 | 0.00 | 39 | 1013.8 |
| 20260508170004 | 66 | 222 | 13.0 | 19.1 | 0.00 | 0.00 | 0.00 | 39 | 1013.7 |
| 20260508164504 | 66 | 255 | 14.8 | 18.2 | 0.00 | 0.00 | 0.00 | 40 | 1013.7 |
| 20260508163048 | 65 | 195 | 11.3 | 16.5 | 0.00 | 0.00 | 0.00 | 41 | 1013.7 |
| 20260508161542 | 65 | 191 | 8.7 | 17.4 | 0.00 | 0.00 | 0.00 | 42 | 1013.8 |
| 20260508160023 | 64 | 128 | 0.0 | 6.1 | 0.00 | 0.00 | 0.00 | 45 | 1013.7 |
| 20260508154520 | 63 | 14 | 0.0 | 7.8 | 0.00 | 0.00 | 0.00 | 45 | 1013.5 |
| 20260508153005 | 62 | 291 | 7.0 | 16.5 | 0.00 | 0.00 | 0.00 | 45 | 1013.5 |
| 20260508151504 | 61 | 183 | 3.5 | 12.2 | 0.00 | 0.00 | 0.00 | 47 | 1013.3 |
| 20260508150124 | 60 | 165 | 7.0 | 11.3 | 0.00 | 0.00 | 0.00 | 50 | 1013.3 |
| 20260508144604 | 58 | 198 | 1.7 | 6.1 | 0.00 | 0.00 | 0.00 | 54 | 1013.4 |
| 20260508143055 | 57 | 278 | 1.7 | 5.2 | 0.00 | 0.00 | 0.00 | 57 | 1013.4 |
| 20260508141602 | 54 | 127 | 0.0 | 0.0 | 0.00 | 0.00 | 0.00 | 61 | 1013.2 |
| 20260508140059 | 54 | 127 | 0.0 | 0.0 | 0.00 | 0.00 | 0.00 | 59 | 1013.2 |
| 20260508134551 | 54 | 266 | 0.0 | 0.0 | 0.00 | 0.00 | 0.00 | 59 | 1013.0 |
| 20260508133035 | 52 | 121 | 0.0 | 0.0 | 0.00 | 0.00 | 0.00 | 59 | 1012.9 |
| 20260508131533 | 52 | 62 | 0.0 | 0.0 | 0.00 | 0.00 | 0.00 | 60 | 1012.7 |
| 20260508130013 | 50 | 62 | 0.0 | 1.7 | 0.00 | 0.00 | 0.00 | 60 | 1012.6 |
| 20260508124511 | 52 | 127 | 0.0 | 3.5 | 0.00 | 0.00 | 0.00 | 58 | 1012.5 |
| 20260508123043 | 53 | 97 | 2.6 | 4.3 | 0.00 | 0.00 | 0.00 | 56 | 1012.4 |
| 20260508121540 | 56 | 77 | 2.6 | 6.1 | 0.00 | 0.00 | 0.00 | 48 | 1012.3 |
| 20260508120022 | 59 | 274 | 7.0 | 9.6 | 0.00 | 0.00 | 0.00 | 47 | 1012.3 |
| 20260508114529 | 59 | 281 | 7.0 | 9.6 | 0.00 | 0.00 | 0.00 | 47 | 1012.2 |
| 20260508113126 | 59 | 301 | 6.1 | 9.6 | 0.00 | 0.00 | 0.00 | 46 | 1012.1 |
| 20260508111601 | 58 | 278 | 6.1 | 13.9 | 0.00 | 0.00 | 0.00 | 47 | 1012.0 |
| 20260508110041 | 57 | 278 | 5.2 | 12.2 | 0.00 | 0.00 | 0.00 | 48 | 1011.8 |
| 20260508104553 | 57 | 283 | 5.2 | 10.4 | 0.00 | 0.00 | 0.00 | 48 | 1011.8 |
| 20260508103026 | 58 | 266 | 7.8 | 11.3 | 0.00 | 0.00 | 0.00 | 45 | 1011.7 |
| 20260508101532 | 59 | 271 | 8.7 | 13.9 | 0.00 | 0.00 | 0.00 | 42 | 1011.6 |
| 20260508100011 | 59 | 267 | 7.8 | 12.2 | 0.00 | 0.00 | 0.00 | 42 | 1011.5 |
| 20260508094510 | 59 | 294 | 3.5 | 8.7 | 0.00 | 0.00 | 0.00 | 42 | 1011.6 |
| 20260508093014 | 58 | 279 | 5.2 | 11.3 | 0.00 | 0.00 | 0.00 | 41 | 1011.5 |
| 20260508091509 | 59 | 259 | 8.7 | 14.8 | 0.00 | 0.00 | 0.00 | 40 | 1011.6 |
| 20260508090008 | 58 | 271 | 7.0 | 10.4 | 0.00 | 0.00 | 0.00 | 42 | 1011.7 |
| 20260508084508 | 58 | 274 | 7.8 | 10.4 | 0.00 | 0.00 | 0.00 | 44 | 1011.7 |
| 20260508083009 | 59 | 272 | 7.8 | 12.2 | 0.00 | 0.00 | 0.00 | 43 | 1011.8 |
| 20260508081509 | 59 | 283 | 7.8 | 10.4 | 0.00 | 0.00 | 0.00 | 45 | 1011.7 |